sat.trackr.live / text

‹ back to catalog

UNKNOWN

NORAD 81552

UNKNOWN UNKNOWN UNKNOWN

§ Identity

Operator
Country
Launch date
Launch site
Launch vehicle
Mass (kg)
RCS (m²)

External: N2YO · Heavens-Above

§ Orbital elements

Epoch: 2026-09-14T04:15:40.046112Z

Period
109.21 min
Inclination
99.0551°
Eccentricity
0.0257671
Mean motion
13.18611013 rev/d
Perigee alt
995.0 km
Apogee alt
1,385.0 km
Semi-major
7,568.2 km
B*
1.4451e-3
RAAN
151.0263°
Arg perigee
76.9093°
Mean anomaly
286.0648°
Rev number
61,554

§ Raw data

UNKNOWN1 81552U          26257.17754683  .00000642  00000+0  14451-2 0  99922 81552  99.0551 151.0263 0257671  76.9093 286.0648 13.18611013615542

JSON: /api/v1/satellites/81552 · /tle

For live sub-satellite position, see the globe view (requires WebGL).

§ Visibility from observer

Set your observer location to see the next 7 days of passes ≥ 10°. The values pass through the URL so the page stays shareable.

No JS? Fill the form by hand. The geolocation button needs JavaScript.